BAW135 EGLL-VABB

Flight info

Callsign BAW135
Flight time N/A
Altitude 33000
Route DET1J DET L6 DVR UL9 KONAN DCT KOK DCT KOMOB DCT PITES DCT BABEG DCT KUMOM DCT VEKEN DCT ELTIB DCT AKIKA DCT MAVAR/N0480F350 DCT BITLA UN132 KEA UL607 PAXIS L607 NABSI P557 OBRAN L321 REXUM M872 PMA Y214 SIKNU/N0483F370 Y214 RAPMA DCT MEVDO DCT ALROK DCT DEBIN DCT MIDGU M440 TULBU N881 AMBOS M700 PARAR N571 SUGID KETOR2A
Aircraft B772/H-SDE2E3FGHIJ5LORVWXY/LB1D1

Departure

Time N/A
Airport London Heathrow Airport (EGLL)

Arrival

Time 2026-05-08 00:23
Airport Chhatrapati Shivaji Maharaj International Airport (VABB)
Time Latitude Longitude Altitude Speed Heading
2026-05-07 21:52 22.69648 53.81262 32735 ft 443 kts 101°
2026-05-07 21:52 22.68669 53.87964 32819 ft 459 kts 101°
2026-05-07 21:53 22.67621 53.94904 32833 ft 475 kts 101°
2026-05-07 21:53 22.66531 54.02026 32830 ft 490 kts 101°
2026-05-07 21:54 22.65398 54.09410 32827 ft 504 kts 101°
2026-05-07 21:54 22.63858 54.16821 32815 ft 505 kts 115°
2026-05-07 21:55 22.60686 54.23657 32813 ft 513 kts 118°
2026-05-07 21:55 22.58247 54.30945 32810 ft 518 kts 105°
2026-05-07 21:56 22.57048 54.38586 32816 ft 519 kts 98°
2026-05-07 21:56 22.56268 54.46347 32814 ft 519 kts 97°
2026-05-07 21:57 22.55447 54.54148 32865 ft 525 kts 98°
2026-05-07 21:57 22.54521 54.62011 32896 ft 529 kts 99°
2026-05-07 21:58 22.53557 54.69880 32937 ft 533 kts 99°
2026-05-07 21:58 22.52579 54.77854 32956 ft 536 kts 99°
2026-05-07 21:59 22.51620 54.85888 32690 ft 537 kts 98°
2026-05-07 21:59 22.51133 54.89819 32895 ft 520 kts 99°
2026-05-07 21:59 22.50598 54.93710 32684 ft 528 kts 100°
2026-05-07 22:00 22.50021 54.97670 32189 ft 540 kts 100°
2026-05-07 22:00 22.49513 55.01652 32184 ft 541 kts 98°
2026-05-07 22:00 22.48623 55.09706 32178 ft 532 kts 98°
2026-05-07 22:01 22.47703 55.17549 32206 ft 526 kts 99°
2026-05-07 22:01 22.46730 55.25322 32187 ft 518 kts 99°
2026-05-07 22:02 22.45760 55.33031 32199 ft 518 kts 99°
2026-05-07 22:02 22.45503 55.36850 32200 ft 518 kts 88°
2026-05-07 22:02 22.46128 55.40676 32432 ft 518 kts 72°
2026-05-07 22:03 22.47526 55.44252 32710 ft 514 kts 62°
2026-05-07 22:03 22.49131 55.47688 32987 ft 511 kts 65°
2026-05-07 22:03 22.50549 55.51206 33255 ft 510 kts 68°
2026-05-07 22:03 22.51862 55.54767 33534 ft 509 kts 69°
2026-05-07 22:04 22.53137 55.58341 33815 ft 508 kts 69°
2026-05-07 22:04 22.54409 55.61903 34058 ft 507 kts 69°
2026-05-07 22:04 22.55678 55.65406 34289 ft 506 kts 69°
2026-05-07 22:04 22.56976 55.68938 34538 ft 505 kts 69°
2026-05-07 22:05 22.58286 55.72464 34789 ft 504 kts 69°
2026-05-07 22:05 22.59599 55.75980 35041 ft 503 kts 69°
2026-05-07 22:05 22.60909 55.79486 35279 ft 502 kts 69°
2026-05-07 22:05 22.62217 55.82986 35539 ft 501 kts 69°
2026-05-07 22:06 22.63520 55.86479 35811 ft 500 kts 69°
2026-05-07 22:06 22.64818 55.89966 36079 ft 499 kts 69°
2026-05-07 22:06 22.66093 55.93395 36324 ft 497 kts 69°
2026-05-07 22:06 22.67380 55.96861 36591 ft 496 kts 69°
2026-05-07 22:07 22.68665 56.00324 36788 ft 496 kts 69°
2026-05-07 22:07 22.69955 56.03806 36818 ft 499 kts 69°
2026-05-07 22:07 22.72550 56.10814 36860 ft 504 kts 69°
2026-05-07 22:08 22.75168 56.17894 36863 ft 508 kts 69°
2026-05-07 22:08 22.77785 56.24980 36859 ft 511 kts 69°
2026-05-07 22:09 22.80429 56.32153 36869 ft 513 kts 69°
2026-05-07 22:09 22.83041 56.39352 36862 ft 513 kts 72°
2026-05-07 22:10 22.84613 56.46864 36863 ft 511 kts 81°
2026-05-07 22:10 22.85865 56.54382 36882 ft 509 kts 80°
2026-05-07 22:11 22.87215 56.61909 36877 ft 508 kts 79°
2026-05-07 22:11 22.88631 56.69412 36892 ft 507 kts 79°
2026-05-07 22:12 22.90052 56.76895 36909 ft 506 kts 79°
2026-05-07 22:12 22.91461 56.84368 36923 ft 505 kts 79°
2026-05-07 22:13 22.92851 56.91783 36921 ft 505 kts 79°
2026-05-07 22:13 22.94247 56.99252 36929 ft 505 kts 79°
2026-05-07 22:14 22.95644 57.06753 36947 ft 509 kts 79°
2026-05-07 22:14 22.97050 57.14318 36938 ft 513 kts 79°
2026-05-07 22:15 22.98452 57.21881 36947 ft 516 kts 79°
2026-05-07 22:15 22.99870 57.29547 36939 ft 519 kts 79°
2026-05-07 22:16 23.00570 57.37315 36937 ft 518 kts 90°
2026-05-07 22:16 23.00643 57.45145 36925 ft 519 kts 90°
2026-05-07 22:17 23.00799 57.52925 36928 ft 519 kts 89°
2026-05-07 22:17 23.01043 57.60764 36915 ft 519 kts 89°
2026-05-07 22:18 23.01418 57.72508 36887 ft 519 kts 89°
2026-05-07 22:19 23.01653 57.80319 36884 ft 517 kts 89°
2026-05-07 22:19 23.01858 57.88056 36872 ft 515 kts 90°
2026-05-07 22:20 23.01866 57.95829 36863 ft 515 kts 91°
2026-05-07 22:20 23.01827 58.03590 36863 ft 514 kts 91°
2026-05-07 22:21 23.01817 58.11348 36854 ft 514 kts 91°
2026-05-07 22:21 23.01817 58.19105 36843 ft 514 kts 91°
2026-05-07 22:22 23.01814 58.26813 36839 ft 514 kts 91°
2026-05-07 22:22 23.01805 58.34578 36844 ft 515 kts 91°
2026-05-07 22:23 23.01867 58.42355 36831 ft 516 kts 89°
2026-05-07 22:23 23.02169 58.50141 36836 ft 517 kts 88°
2026-05-07 22:24 23.02482 58.57885 36832 ft 517 kts 89°
2026-05-07 22:24 23.02752 58.65690 36826 ft 518 kts 89°
2026-05-07 22:25 23.03002 58.73501 36803 ft 518 kts 89°
2026-05-07 22:25 23.03250 58.81321 36780 ft 518 kts 89°
2026-05-07 22:26 23.03496 58.89139 36772 ft 518 kts 89°
2026-05-07 22:26 23.03737 58.96896 36790 ft 517 kts 89°
2026-05-07 22:27 23.03975 59.04696 36786 ft 517 kts 89°
2026-05-07 22:27 23.04202 59.12501 36781 ft 517 kts 89°
2026-05-07 22:28 23.04425 59.20311 36764 ft 517 kts 89°
2026-05-07 22:28 23.04644 59.28064 36745 ft 517 kts 89°
2026-05-07 22:29 23.04861 59.35874 36737 ft 517 kts 89°
2026-05-07 22:29 23.05033 59.43681 36732 ft 517 kts 89°
2026-05-07 22:30 23.05143 59.51486 36721 ft 517 kts 89°
2026-05-07 22:30 23.05254 59.59300 36721 ft 517 kts 89°
2026-05-07 22:31 23.05370 59.67056 36723 ft 517 kts 89°
2026-05-07 22:31 23.05487 59.74865 36722 ft 517 kts 89°
2026-05-07 22:32 23.05598 59.82678 36721 ft 517 kts 89°
2026-05-07 22:32 23.05674 59.90438 36728 ft 517 kts 92°
2026-05-07 22:33 23.04516 59.98110 36733 ft 515 kts 103°
2026-05-07 22:33 23.02945 60.05704 36731 ft 516 kts 103°
2026-05-07 22:34 23.01474 60.13322 36735 ft 516 kts 102°
2026-05-07 22:34 23.00075 60.20965 36738 ft 516 kts 102°
2026-05-07 22:35 22.98699 60.28567 36731 ft 517 kts 102°
2026-05-07 22:35 22.97306 60.36215 36733 ft 517 kts 102°
2026-05-07 22:36 22.95901 60.43868 36733 ft 517 kts 102°
2026-05-07 22:36 22.94491 60.51520 36734 ft 517 kts 102°
2026-05-07 22:37 22.93086 60.59120 36732 ft 517 kts 102°
2026-05-07 22:37 22.91667 60.66776 36740 ft 518 kts 102°
2026-05-07 22:38 22.90246 60.74427 36738 ft 518 kts 102°
2026-05-07 22:38 22.88820 60.82081 36735 ft 518 kts 102°
2026-05-07 22:39 22.87400 60.89681 36732 ft 518 kts 102°
2026-05-07 22:39 22.85967 60.97331 36738 ft 518 kts 102°
2026-05-07 22:40 22.84530 61.04977 36742 ft 518 kts 102°
2026-05-07 22:40 22.83089 61.12626 36742 ft 518 kts 102°
2026-05-07 22:41 22.81644 61.20276 36737 ft 518 kts 102°
2026-05-07 22:41 22.80205 61.27873 36738 ft 518 kts 102°
2026-05-07 22:42 22.78751 61.35530 36744 ft 519 kts 102°
2026-05-07 22:42 22.77293 61.43186 36743 ft 519 kts 102°
2026-05-07 22:43 22.75830 61.50848 36746 ft 519 kts 102°
2026-05-07 22:43 22.74372 61.58462 36747 ft 520 kts 102°
2026-05-07 22:44 22.72901 61.66123 36744 ft 520 kts 102°
2026-05-07 22:44 22.71425 61.73789 36743 ft 520 kts 102°
2026-05-07 22:45 22.69946 61.81450 36745 ft 520 kts 102°
2026-05-07 22:45 22.68475 61.89053 36745 ft 519 kts 102°
2026-05-07 22:46 22.66990 61.96706 36748 ft 519 kts 102°
2026-05-07 22:46 22.65502 62.04354 36746 ft 519 kts 102°
2026-05-07 22:47 22.64010 62.12000 36755 ft 519 kts 102°
2026-05-07 22:47 22.62515 62.19641 36756 ft 519 kts 102°
2026-05-07 22:48 22.61028 62.27224 36759 ft 519 kts 102°
2026-05-07 22:48 22.59527 62.34857 36754 ft 519 kts 102°
2026-05-07 22:49 22.58022 62.42490 36761 ft 519 kts 102°
2026-05-07 22:49 22.56514 62.50119 36759 ft 519 kts 102°
2026-05-07 22:50 22.55012 62.57699 36757 ft 519 kts 102°
2026-05-07 22:50 22.53496 62.65329 36754 ft 519 kts 102°
2026-05-07 22:51 22.51976 62.72957 36758 ft 519 kts 102°
2026-05-07 22:51 22.50454 62.80582 36761 ft 519 kts 102°
2026-05-07 22:52 22.48928 62.88202 36763 ft 519 kts 102°
2026-05-07 22:52 22.47408 62.95776 36763 ft 519 kts 102°
2026-05-07 22:53 22.45875 63.03395 36764 ft 519 kts 102°
2026-05-07 22:53 22.44330 63.11011 36766 ft 519 kts 104°
2026-05-07 22:54 22.41619 63.18192 36776 ft 517 kts 118°
2026-05-07 22:54 22.38307 63.25036 36773 ft 518 kts 117°
2026-05-07 22:55 22.35089 63.32000 36770 ft 518 kts 116°
2026-05-07 22:55 22.31944 63.39008 36769 ft 518 kts 116°
2026-05-07 22:56 22.28813 63.46020 36776 ft 519 kts 116°
2026-05-07 22:56 22.25691 63.52982 36773 ft 519 kts 116°
2026-05-07 22:57 22.22536 63.59991 36772 ft 519 kts 116°
2026-05-07 22:57 22.19378 63.66991 36777 ft 519 kts 116°
2026-05-07 22:58 22.16215 63.73993 36773 ft 519 kts 116°
2026-05-07 22:58 22.13071 63.80946 36776 ft 519 kts 116°
2026-05-07 22:59 22.09905 63.87937 36779 ft 519 kts 116°
2026-05-07 22:59 22.06739 63.94921 36778 ft 518 kts 116°
2026-05-07 23:00 22.03571 64.01897 36779 ft 518 kts 116°
2026-05-07 23:00 22.00425 64.08815 36786 ft 518 kts 116°
2026-05-07 23:01 21.97253 64.15782 36786 ft 518 kts 116°
2026-05-07 23:01 21.94077 64.22746 36783 ft 518 kts 116°
2026-05-07 23:02 21.90898 64.29709 36779 ft 518 kts 116°
2026-05-07 23:02 21.87740 64.36615 36790 ft 517 kts 116°
2026-05-07 23:03 21.84560 64.43561 36785 ft 517 kts 116°
2026-05-07 23:03 21.81380 64.50498 36786 ft 517 kts 116°
2026-05-07 23:04 21.78196 64.57433 36786 ft 517 kts 116°
2026-05-07 23:04 21.75032 64.64316 36789 ft 517 kts 117°
2026-05-07 23:05 21.71844 64.71242 36792 ft 517 kts 117°
2026-05-07 23:05 21.68654 64.78162 36790 ft 516 kts 117°
2026-05-07 23:06 21.65464 64.85074 36789 ft 516 kts 117°
2026-05-07 23:06 21.62271 64.91982 36790 ft 516 kts 117°
2026-05-07 23:07 21.59098 64.98839 36795 ft 516 kts 117°
2026-05-07 23:07 21.55900 65.05740 36796 ft 516 kts 117°
2026-05-07 23:08 21.52701 65.12635 36794 ft 516 kts 117°
2026-05-07 23:08 21.49497 65.19529 36799 ft 516 kts 117°
2026-05-07 23:09 21.46313 65.26375 36794 ft 516 kts 117°
2026-05-07 23:09 21.43105 65.33259 36805 ft 515 kts 117°
2026-05-07 23:10 21.39897 65.40137 36800 ft 515 kts 117°
2026-05-07 23:10 21.37227 65.45855 36798 ft 515 kts 117°
2026-05-07 23:11 21.33493 65.53839 36802 ft 515 kts 117°
2026-05-07 23:11 21.30279 65.60702 36802 ft 515 kts 117°
2026-05-07 23:12 21.27060 65.67569 36804 ft 515 kts 117°
2026-05-07 23:12 21.24382 65.73272 36795 ft 515 kts 117°
2026-05-07 23:13 21.21159 65.80130 36800 ft 515 kts 117°
2026-05-07 23:13 21.17412 65.88094 36804 ft 515 kts 117°
2026-05-07 23:14 21.14187 65.94939 36806 ft 515 kts 117°
2026-05-07 23:14 21.11502 66.00631 36806 ft 515 kts 117°
2026-05-07 23:15 21.08345 66.07510 36803 ft 515 kts 116°
2026-05-07 23:15 21.05230 66.14416 36810 ft 515 kts 116°
2026-05-07 23:16 21.02130 66.21267 36808 ft 515 kts 116°
2026-05-07 23:16 20.98997 66.28153 36813 ft 515 kts 116°
2026-05-07 23:17 20.95856 66.35037 36811 ft 515 kts 116°
2026-05-07 23:17 20.92713 66.41915 36812 ft 515 kts 116°
2026-05-07 23:18 20.89589 66.48745 36811 ft 515 kts 116°
2026-05-07 23:18 20.86442 66.55619 36810 ft 515 kts 116°
2026-05-07 23:19 20.83291 66.62491 36812 ft 515 kts 116°
2026-05-07 23:19 20.80136 66.69362 36816 ft 515 kts 116°
2026-05-07 23:20 20.76978 66.76232 36813 ft 515 kts 116°
2026-05-07 23:20 20.73840 66.83050 36813 ft 515 kts 116°
2026-05-07 23:21 20.70679 66.89909 36816 ft 514 kts 116°
2026-05-07 23:21 20.67515 66.96765 36813 ft 515 kts 116°
2026-05-07 23:22 20.64369 67.03574 36814 ft 515 kts 116°
2026-05-07 23:22 20.61197 67.10430 36814 ft 515 kts 116°
2026-05-07 23:23 20.58021 67.17287 36815 ft 515 kts 116°
2026-05-07 23:23 20.54842 67.24141 36820 ft 516 kts 116°
2026-05-07 23:24 20.51659 67.30997 36818 ft 516 kts 116°
2026-05-07 23:24 20.48491 67.37810 36818 ft 516 kts 116°
2026-05-07 23:25 20.45297 67.44670 36820 ft 517 kts 116°
2026-05-07 23:25 20.42097 67.51534 36820 ft 517 kts 117°
2026-05-07 23:26 20.38897 67.58392 36816 ft 517 kts 117°
2026-05-07 23:26 20.35708 67.65216 36816 ft 518 kts 117°
2026-05-07 23:27 20.30888 67.75513 36812 ft 518 kts 117°
2026-05-07 23:27 20.27673 67.82372 36821 ft 517 kts 117°
2026-05-07 23:28 20.24460 67.89218 36816 ft 517 kts 117°
2026-05-07 23:28 20.21265 67.96015 36818 ft 516 kts 117°
2026-05-07 23:29 20.18050 68.02850 36819 ft 516 kts 117°
2026-05-07 23:29 20.14835 68.09673 36818 ft 516 kts 117°
2026-05-07 23:30 20.11618 68.16494 36820 ft 515 kts 117°
2026-05-07 23:30 20.08423 68.23260 36821 ft 516 kts 117°
2026-05-07 23:31 20.05203 68.30071 36824 ft 515 kts 117°
2026-05-07 23:31 20.01977 68.36885 36821 ft 516 kts 117°
2026-05-07 23:32 19.98750 68.43693 36822 ft 515 kts 117°
2026-05-07 23:32 19.95521 68.50497 36822 ft 515 kts 117°
2026-05-07 23:33 19.92312 68.57252 36821 ft 516 kts 117°
2026-05-07 23:33 19.89075 68.64057 36823 ft 516 kts 117°
2026-05-07 23:34 19.85834 68.70861 36822 ft 516 kts 117°
2026-05-07 23:34 19.82589 68.77667 36823 ft 517 kts 117°
2026-05-07 23:35 19.79363 68.84424 36825 ft 516 kts 117°
2026-05-07 23:35 19.76113 68.91224 36822 ft 516 kts 117°
2026-05-07 23:36 19.72859 68.98023 36826 ft 516 kts 117°
2026-05-07 23:36 19.69604 69.04817 36825 ft 517 kts 117°
2026-05-07 23:37 19.66367 69.11566 36822 ft 517 kts 117°
2026-05-07 23:37 19.63107 69.18355 36821 ft 517 kts 117°
2026-05-07 23:38 19.59842 69.25147 36821 ft 517 kts 117°
2026-05-07 23:38 19.56573 69.31940 36817 ft 517 kts 117°
2026-05-07 23:39 19.53331 69.38681 36825 ft 517 kts 117°
2026-05-07 23:39 19.50098 69.45442 36824 ft 517 kts 117°
2026-05-07 23:40 19.46851 69.52234 36825 ft 517 kts 117°
2026-05-07 23:40 19.43596 69.59030 36824 ft 517 kts 117°
2026-05-07 23:41 19.40359 69.65777 36824 ft 517 kts 117°
2026-05-07 23:41 19.37098 69.72566 36825 ft 517 kts 117°
2026-05-07 23:42 19.33834 69.79352 36825 ft 517 kts 117°
2026-05-07 23:42 19.30566 69.86140 36819 ft 517 kts 117°
2026-05-07 23:43 19.27299 69.92918 36826 ft 517 kts 118°
2026-05-07 23:43 19.24047 69.99658 36825 ft 518 kts 118°
2026-05-07 23:44 19.20770 70.06440 36826 ft 518 kts 118°
2026-05-07 23:44 19.17490 70.13224 36824 ft 518 kts 118°
2026-05-07 23:45 19.14230 70.19958 36824 ft 518 kts 118°
2026-05-07 23:45 19.11205 70.26869 36832 ft 518 kts 112°
2026-05-07 23:46 19.08623 70.34014 36281 ft 525 kts 111°
2026-05-07 23:46 19.07343 70.37628 35707 ft 525 kts 111°
2026-05-07 23:46 19.06049 70.41228 35185 ft 522 kts 111°
2026-05-07 23:47 19.04740 70.44798 34718 ft 520 kts 111°
2026-05-07 23:47 19.03418 70.48354 34264 ft 520 kts 112°
2026-05-07 23:47 19.02102 70.51858 33841 ft 520 kts 112°
2026-05-07 23:47 19.00759 70.55418 33341 ft 524 kts 112°
2026-05-07 23:48 18.99401 70.59014 32851 ft 529 kts 112°
2026-05-07 23:48 18.98036 70.62626 32370 ft 530 kts 111°
2026-05-07 23:48 18.96671 70.66242 31918 ft 529 kts 111°
2026-05-07 23:48 18.95311 70.69846 31494 ft 528 kts 111°
2026-05-07 23:49 18.93953 70.73445 31077 ft 526 kts 111°
2026-05-07 23:49 18.92604 70.77019 30658 ft 521 kts 111°
2026-05-07 23:49 18.91271 70.80549 30237 ft 514 kts 111°
2026-05-07 23:49 18.89973 70.83983 29828 ft 508 kts 111°
2026-05-07 23:50 18.88670 70.87426 29351 ft 503 kts 111°
2026-05-07 23:50 18.87378 70.90840 28886 ft 499 kts 111°
2026-05-07 23:50 18.86091 70.94237 28426 ft 496 kts 111°
2026-05-07 23:50 18.84811 70.97614 27972 ft 494 kts 111°
2026-05-07 23:51 18.83539 71.00968 27525 ft 491 kts 111°
2026-05-07 23:51 18.82271 71.04309 27078 ft 489 kts 111°
2026-05-07 23:51 18.81009 71.07633 26652 ft 487 kts 111°
2026-05-07 23:51 18.79770 71.10895 26239 ft 484 kts 111°
2026-05-07 23:52 18.78519 71.14185 25818 ft 482 kts 110°
2026-05-07 23:52 18.77275 71.17455 25404 ft 479 kts 110°
2026-05-07 23:52 18.76037 71.20706 24999 ft 476 kts 110°
2026-05-07 23:52 18.74807 71.23937 24602 ft 474 kts 110°
2026-05-07 23:53 18.73582 71.27151 24195 ft 471 kts 110°
2026-05-07 23:53 18.72363 71.30347 23808 ft 468 kts 110°
2026-05-07 23:53 18.71151 71.33522 23421 ft 465 kts 110°
2026-05-07 23:53 18.69947 71.36678 22968 ft 462 kts 110°
2026-05-07 23:54 18.68802 71.39815 22495 ft 451 kts 104°
2026-05-07 23:54 18.68425 71.43015 22039 ft 444 kts 83°
2026-05-07 23:54 18.69020 71.46173 21675 ft 437 kts 71°
2026-05-07 23:54 18.69970 71.49203 21300 ft 434 kts 69°
2026-05-07 23:55 18.70935 71.52217 20911 ft 433 kts 70°
2026-05-07 23:55 18.71794 71.55256 20539 ft 432 kts 73°
2026-05-07 23:55 18.72534 71.58328 20163 ft 432 kts 75°
2026-05-07 23:55 18.73178 71.61415 19795 ft 431 kts 77°
2026-05-07 23:56 18.73762 71.64507 19432 ft 429 kts 78°
2026-05-07 23:56 18.74314 71.67598 19074 ft 428 kts 78°
2026-05-07 23:56 18.74843 71.70638 18720 ft 426 kts 78°
2026-05-07 23:56 18.75375 71.73706 18369 ft 424 kts 79°
2026-05-07 23:57 18.75905 71.76760 18004 ft 422 kts 79°
2026-05-07 23:57 18.76435 71.79801 17596 ft 420 kts 79°
2026-05-07 23:57 18.76962 71.82818 17195 ft 417 kts 79°
2026-05-07 23:57 18.77485 71.85805 16788 ft 410 kts 79°
2026-05-07 23:58 18.77999 71.88741 16401 ft 404 kts 80°
2026-05-07 23:58 18.78507 71.91637 16007 ft 399 kts 81°
2026-05-07 23:58 18.79008 71.94502 15618 ft 395 kts 81°
2026-05-07 23:58 18.79505 71.97343 15236 ft 392 kts 81°
2026-05-07 23:59 18.79991 72.00121 14865 ft 389 kts 81°
2026-05-07 23:59 18.80479 72.02913 14571 ft 384 kts 81°
2026-05-07 23:59 18.80959 72.05663 14412 ft 381 kts 81°
2026-05-07 23:59 18.81439 72.08423 14283 ft 384 kts 81°
2026-05-08 00:00 18.81924 72.11206 14173 ft 387 kts 81°
2026-05-08 00:00 18.82409 72.13996 14055 ft 386 kts 81°
2026-05-08 00:00 18.82893 72.16779 13940 ft 385 kts 81°
2026-05-08 00:00 18.83374 72.19554 13828 ft 384 kts 81°
2026-05-08 00:01 18.83848 72.22284 13718 ft 383 kts 81°
2026-05-08 00:01 18.84327 72.25043 13598 ft 382 kts 81°
2026-05-08 00:01 18.84803 72.27796 13459 ft 381 kts 81°
2026-05-08 00:01 18.85278 72.30542 13332 ft 380 kts 81°
2026-05-08 00:02 18.85751 72.33283 13202 ft 379 kts 81°
2026-05-08 00:02 18.86223 72.36017 13080 ft 379 kts 81°
2026-05-08 00:02 18.86695 72.38751 12957 ft 378 kts 81°
2026-05-08 00:02 18.87165 72.41478 12830 ft 377 kts 81°
2026-05-08 00:03 18.87628 72.44165 12704 ft 377 kts 81°
2026-05-08 00:03 18.88096 72.46883 12582 ft 376 kts 81°
2026-05-08 00:03 18.88563 72.49595 12447 ft 375 kts 81°
2026-05-08 00:03 18.89027 72.52301 12333 ft 374 kts 81°
2026-05-08 00:04 18.89491 72.55000 12208 ft 373 kts 81°
2026-05-08 00:04 18.89953 72.57694 12082 ft 372 kts 81°
2026-05-08 00:04 18.90413 72.60379 11969 ft 371 kts 80°
2026-05-08 00:04 18.90796 72.63066 11832 ft 370 kts 85°
2026-05-08 00:05 18.90954 72.65772 11718 ft 368 kts 88°
2026-05-08 00:05 18.91023 72.68434 11601 ft 366 kts 89°
2026-05-08 00:05 18.91080 72.71079 11465 ft 354 kts 89°
2026-05-08 00:05 18.91145 72.73633 11325 ft 342 kts 88°
2026-05-08 00:06 18.91220 72.76099 11165 ft 326 kts 88°
2026-05-08 00:06 18.91299 72.78407 11016 ft 303 kts 88°
2026-05-08 00:06 18.91378 72.80554 10859 ft 283 kts 88°
2026-05-08 00:06 18.91454 72.82561 10702 ft 264 kts 88°
2026-05-08 00:07 18.91527 72.84437 10540 ft 247 kts 88°
2026-05-08 00:07 18.91595 72.86197 10401 ft 242 kts 88°
2026-05-08 00:07 18.91665 72.87978 10359 ft 243 kts 88°
2026-05-08 00:07 18.91733 72.89722 10314 ft 245 kts 88°
2026-05-08 00:08 18.91804 72.91531 10180 ft 247 kts 88°
2026-05-08 00:08 18.91875 72.93332 10072 ft 244 kts 88°
2026-05-08 00:08 18.91944 72.95104 9968 ft 239 kts 87°
2026-05-08 00:08 18.92012 72.96842 9902 ft 235 kts 87°
2026-05-08 00:09 18.92080 72.98574 9858 ft 238 kts 87°
2026-05-08 00:09 18.92148 73.00328 9841 ft 240 kts 87°
2026-05-08 00:09 18.92216 73.02086 9835 ft 239 kts 87°
2026-05-08 00:09 18.92281 73.03775 9815 ft 227 kts 87°
2026-05-08 00:10 18.92344 73.05396 9803 ft 216 kts 87°
2026-05-08 00:10 18.92405 73.06977 9816 ft 215 kts 87°
2026-05-08 00:10 18.92465 73.08553 9826 ft 215 kts 87°
2026-05-08 00:10 18.92527 73.10132 9855 ft 215 kts 87°
2026-05-08 00:11 18.92588 73.11715 9748 ft 214 kts 87°
2026-05-08 00:11 18.92646 73.13252 9536 ft 205 kts 87°
2026-05-08 00:11 18.92703 73.14748 9426 ft 205 kts 87°
2026-05-08 00:11 18.92763 73.16242 9206 ft 208 kts 86°
2026-05-08 00:12 18.92827 73.17770 8807 ft 208 kts 86°
2026-05-08 00:12 18.92891 73.19313 8318 ft 212 kts 86°
2026-05-08 00:12 18.92983 73.20869 7818 ft 211 kts 78°
2026-05-08 00:12 18.93641 73.22226 7345 ft 210 kts 44°
2026-05-08 00:13 18.94898 73.22952 6871 ft 209 kts 11°
2026-05-08 00:13 18.96339 73.23059 6429 ft 206 kts
2026-05-08 00:13 18.97765 73.23074 5989 ft 204 kts
2026-05-08 00:13 18.99158 73.23079 5511 ft 202 kts
2026-05-08 00:14 19.00558 73.23080 5034 ft 199 kts
2026-05-08 00:14 19.01912 73.23072 4730 ft 190 kts
2026-05-08 00:14 19.03208 73.23066 4378 ft 182 kts 360°
2026-05-08 00:14 19.04450 73.23061 4076 ft 175 kts 360°
2026-05-08 00:15 19.05695 73.23058 4033 ft 180 kts 360°
2026-05-08 00:15 19.06952 73.23053 4027 ft 179 kts 360°
2026-05-08 00:15 19.08155 73.22837 4005 ft 176 kts 332°
2026-05-08 00:15 19.08929 73.21851 4008 ft 183 kts 288°
2026-05-08 00:16 19.09089 73.20536 4041 ft 184 kts 277°
2026-05-08 00:16 19.09201 73.19163 4025 ft 189 kts 275°
2026-05-08 00:16 19.09252 73.17791 4009 ft 185 kts 273°
2026-05-08 00:16 19.09262 73.16445 4004 ft 182 kts 272°
2026-05-08 00:17 19.09256 73.15102 4020 ft 183 kts 271°
2026-05-08 00:17 19.09242 73.13754 4027 ft 185 kts 271°
2026-05-08 00:17 19.09225 73.12382 4024 ft 186 kts 271°
2026-05-08 00:17 19.09206 73.11008 4022 ft 187 kts 271°
2026-05-08 00:18 19.09187 73.09621 3863 ft 190 kts 271°
2026-05-08 00:18 19.09168 73.08270 3627 ft 183 kts 271°
2026-05-08 00:18 19.09149 73.06939 3410 ft 180 kts 270°
2026-05-08 00:18 19.09131 73.05610 3201 ft 181 kts 270°
2026-05-08 00:19 19.09113 73.04282 2975 ft 181 kts 270°
2026-05-08 00:19 19.09096 73.02962 2732 ft 178 kts 270°
2026-05-08 00:19 19.09077 73.01659 2517 ft 178 kts 270°
2026-05-08 00:19 19.09058 73.00349 2310 ft 177 kts 270°
2026-05-08 00:20 19.09041 72.99067 2082 ft 170 kts 270°
2026-05-08 00:20 19.09024 72.97862 1849 ft 157 kts 270°
2026-05-08 00:20 19.09009 72.96771 1658 ft 149 kts 269°
2026-05-08 00:20 19.08994 72.95680 1480 ft 150 kts 269°
2026-05-08 00:21 19.08979 72.94586 1298 ft 148 kts 270°
2026-05-08 00:21 19.08965 72.93505 1104 ft 147 kts 271°
2026-05-08 00:21 19.08949 72.92431 914 ft 144 kts 271°
2026-05-08 00:21 19.08935 72.91351 753 ft 148 kts 271°
2026-05-08 00:22 19.08919 72.90265 557 ft 147 kts 271°
2026-05-08 00:22 19.08904 72.89181 383 ft 147 kts 269°
2026-05-08 00:22 19.08888 72.88084 165 ft 150 kts 270°
2026-05-08 00:22 19.08874 72.86987 36 ft 145 kts 269°
2026-05-08 00:23 19.08861 72.86052 27 ft 109 kts 269°
2026-05-08 00:23 19.08855 72.85481 30 ft 33 kts 277°
2026-05-08 00:23 19.08896 72.85347 32 ft 9 kts 295°
2026-05-08 00:23 19.08915 72.85307 32 ft 4 kts 297°
2026-05-08 00:24 19.08922 72.85292 31 ft 1 kts 297°
2026-05-08 00:24 19.08926 72.85284 31 ft 1 kts 297°
2026-05-08 00:24 19.08928 72.85280 31 ft 0 kts 297°
2026-05-08 00:24 19.08930 72.85276 31 ft 6 kts 297°
2026-05-08 00:25 19.08957 72.85242 31 ft 3 kts 328°
2026-05-08 00:25 19.08982 72.85238 30 ft 5 kts
2026-05-08 00:25 19.09012 72.85261 30 ft 6 kts 58°
2026-05-08 00:25 19.09021 72.85309 30 ft 7 kts 89°
2026-05-08 00:26 19.09021 72.85366 30 ft 9 kts 90°
2026-05-08 00:26 19.09022 72.85438 30 ft 11 kts 89°
2026-05-08 00:26 19.09023 72.85523 30 ft 12 kts 89°
2026-05-08 00:26 19.09025 72.85618 29 ft 14 kts 89°
2026-05-08 00:27 19.09027 72.85724 29 ft 15 kts 89°
2026-05-08 00:27 19.09028 72.85829 29 ft 15 kts 89°
2026-05-08 00:27 19.09030 72.85936 29 ft 15 kts 89°
2026-05-08 00:27 19.09032 72.86043 29 ft 15 kts 88°
2026-05-08 00:28 19.09035 72.86150 29 ft 15 kts 88°
2026-05-08 00:28 19.09036 72.86257 29 ft 15 kts 90°
2026-05-08 00:28 19.09036 72.86359 29 ft 12 kts 88°
2026-05-08 00:28 19.09038 72.86447 29 ft 11 kts 89°
2026-05-08 00:29 19.09038 72.86527 29 ft 11 kts 89°
2026-05-08 00:29 19.09040 72.86606 30 ft 11 kts 89°
2026-05-08 00:29 19.09041 72.86686 30 ft 11 kts 89°
2026-05-08 00:29 19.09053 72.86763 30 ft 11 kts 68°
2026-05-08 00:30 19.09101 72.86822 30 ft 11 kts 46°
2026-05-08 00:30 19.09128 72.86894 30 ft 11 kts 84°
2026-05-08 00:30 19.09132 72.86973 30 ft 11 kts 89°
2026-05-08 00:30 19.09132 72.87052 30 ft 11 kts 90°
2026-05-08 00:31 19.09133 72.87132 30 ft 11 kts 88°
2026-05-08 00:31 19.09133 72.87207 30 ft 8 kts 89°
2026-05-08 00:31 19.09147 72.87256 30 ft 7 kts 52°
2026-05-08 00:31 19.09173 72.87266 30 ft 1 kts
2026-05-08 00:32 19.09200 72.87258 30 ft 9 kts 338°
2026-05-08 00:32 19.09257 72.87236 30 ft 9 kts 343°
2026-05-08 00:32 19.09300 72.87223 30 ft 3 kts 344°
2026-05-08 00:32 19.09307 72.87221 30 ft 1 kts 344°
2026-05-08 00:33 19.09312 72.87220 30 ft 1 kts 344°
2026-05-08 00:33 19.09315 72.87219 30 ft 0 kts 344°
2026-05-08 00:33 19.09316 72.87219 30 ft 0 kts 344°